Location: Biltmore Gardens
(41.6070°N, 83.4666°W)
Time: 15:21:07
(UTC+00:00)

SL-16 R/B - Pass Details

Date: 14 July 2020
Orbit: 985 x 1007 km, 99.5° (Epoch: 13 August)

Event Time Altitude Azimuth Distance (km) Brightness Sun altitude
Exits shadow 07:12:18 36° 159° (SSE) 1,535 3.2 -23.3°
Maximum altitude 07:15:05 85° 74° (ENE) 1,013 2.5 -23.1°
Drops below altitude 10° 07:21:23 10° 347° (NNW) 2,790 5.6 -22.6°
Sets 07:23:52 0° 347° (NNW) 3,745 6.3 -22.4°
